• In Hungary
  • List of Countries
  • For 7 days
  • Water Temperature
  • Satellite Maps
  • Weather Map
  • News
  • Weather Widgets
  • user-avatar
    Login

    Hourly Weather Wadoly

    Today, 19 October, Thursday

    Time Temperature Precipitation Wind Pressure Humidity
    00:00 +10°C° 0 mm 2 mps 752 mmHg 88%
    01:00 +9°C° 0 mm 2 mps 752 mmHg 90%
    02:00 +9°C° 0 mm 2 mps 752 mmHg 91%
    03:00 +9°C° 0 mm 2 mps 752 mmHg 92%
    04:00 +9°C° 0 mm 2 mps 752 mmHg 93%
    05:00 +9°C° 0 mm 2 mps 752 mmHg 93%
    06:00 +9°C° 0 mm 2 mps 752 mmHg 93%
    07:00 +9°C° 0 mm 2 mps 752 mmHg 93%
    08:00 +10°C° 0 mm 2 mps 752 mmHg 87%
    09:00 +13°C° 0 mm 2 mps 753 mmHg 81%
    10:00 +14°C° 0 mm 2 mps 753 mmHg 75%
    11:00 +15°C° 0 mm 2 mps 753 mmHg 72%
    12:00 +15°C° 0 mm 2 mps 753 mmHg 68%
    13:00 +16°C° 0 mm 2 mps 753 mmHg 65%
    14:00 +16°C° 0 mm 2 mps 753 mmHg 69%
    15:00 +15°C° 0 mm 2 mps 753 mmHg 72%
    16:00 +14°C° 0 mm 2 mps 753 mmHg 76%
    17:00 +13°C° 0 mm 2 mps 753 mmHg 80%
    18:00 +11°C° 0 mm 3 mps 753 mmHg 84%
    19:00 +11°C° 0 mm 3 mps 754 mmHg 88%
    20:00 +10°C° 0 mm 3 mps 754 mmHg 89%
    21:00 +10°C° 0 mm 3 mps 754 mmHg 91%
    22:00 +9°C° 0 mm 3 mps 754 mmHg 92%
    23:00 +9°C° 0 mm 2 mps 754 mmHg 93%

    Tomorrow, 20 October, Friday

    Time Temperature Precipitation Wind Pressure Humidity
    00:00 +9°C° 0 mm 2 mps 754 mmHg 93%
    01:00 +9°C° 0 mm 2 mps 754 mmHg 94%
    02:00 +9°C° 0 mm 2 mps 754 mmHg 94%
    03:00 +8°C° 0 mm 2 mps 754 mmHg 95%
    04:00 +8°C° 0 mm 2 mps 754 mmHg 95%
    05:00 +8°C° 0 mm 2 mps 754 mmHg 95%
    06:00 +8°C° 0 mm 2 mps 754 mmHg 96%
    07:00 +8°C° 0 mm 2 mps 755 mmHg 96%
    08:00 +10°C° 0 mm 3 mps 755 mmHg 91%
    09:00 +11°C° 0 mm 3 mps 755 mmHg 85%
    10:00 +12°C° 0 mm 3 mps 755 mmHg 80%
    11:00 +13°C° 0 mm 3 mps 755 mmHg 77%
    12:00 +14°C° 0 mm 3 mps 755 mmHg 74%
    13:00 +16°C° 0 mm 3 mps 755 mmHg 71%
    14:00 +16°C° 0 mm 2 mps 755 mmHg 74%
    15:00 +15°C° 0 mm 2 mps 755 mmHg 77%
    16:00 +15°C° 0 mm 2 mps 754 mmHg 79%
    17:00 +14°C° 0 mm 2 mps 755 mmHg 82%
    18:00 +13°C° 0 mm 3 mps 755 mmHg 84%
    19:00 +12°C° 0 mm 3 mps 755 mmHg 86%
    20:00 +11°C° 0 mm 3 mps 755 mmHg 87%
    21:00 +11°C° 0 mm 3 mps 755 mmHg 88%
    22:00 +11°C° 0 mm 3 mps 755 mmHg 90%
    23:00 +10°C° 0 mm 3 mps 755 mmHg 91%

    Day after tomorrow, 21 October, Saturday

    Time Temperature Precipitation Wind Pressure Humidity
    00:00 +10°C° 0 mm 3 mps 755 mmHg 92%
    01:00 +10°C° 0 mm 3 mps 756 mmHg 93%
    02:00 +10°C° 0 mm 3 mps 755 mmHg 94%
    03:00 +9°C° 0 mm 3 mps 755 mmHg 95%
    04:00 +9°C° 0 mm 3 mps 755 mmHg 95%
    05:00 +9°C° 0 mm 3 mps 755 mmHg 95%
    06:00 +9°C° 0 mm 3 mps 755 mmHg 95%
    07:00 +8°C° 0 mm 4 mps 755 mmHg 95%
    08:00 +11°C° 0 mm 4 mps 755 mmHg 91%
    09:00 +12°C° 0 mm 4 mps 755 mmHg 86%
    10:00 +13°C° 0 mm 5 mps 755 mmHg 81%
    11:00 +14°C° 0.1 mm 4 mps 754 mmHg 80%
    12:00 +14°C° 0.1 mm 4 mps 754 mmHg 78%
    13:00 +15°C° 0.1 mm 4 mps 754 mmHg 77%
    14:00 +15°C° 0.1 mm 4 mps 754 mmHg 79%
    15:00 +14°C° 0.1 mm 3 mps 753 mmHg 81%
    16:00 +14°C° 0.1 mm 3 mps 753 mmHg 83%
    17:00 +13°C° 0 mm 3 mps 753 mmHg 85%
    18:00 +13°C° 0 mm 3 mps 753 mmHg 87%
    19:00 +12°C° 0 mm 3 mps 753 mmHg 89%
    20:00 +12°C° 0 mm 3 mps 752 mmHg 89%
    21:00 +12°C° 0 mm 3 mps 752 mmHg 89%
    22:00 +12°C° 0 mm 3 mps 752 mmHg 88%
    23:00 +12°C° 0 mm 3 mps 752 mmHg 89%

    22 October, Sunday

    Time Temperature Precipitation Wind Pressure Humidity
    00:00 +12°C° 0 mm 3 mps 752 mmHg 89%
    01:00 +12°C° 0 mm 3 mps 751 mmHg 90%
    02:00 +11°C° 0 mm 3 mps 751 mmHg 90%
    03:00 +11°C° 0 mm 3 mps 751 mmHg 89%
    04:00 +11°C° 0 mm 3 mps 750 mmHg 89%
    05:00 +11°C° 0.3 mm 3 mps 750 mmHg 90%
    06:00 +11°C° 0.3 mm 3 mps 750 mmHg 90%
    07:00 +11°C° 0.3 mm 3 mps 750 mmHg 91%
    08:00 +12°C° 0.4 mm 3 mps 750 mmHg 91%
    09:00 +12°C° 0.4 mm 3 mps 750 mmHg 90%
    10:00 +13°C° 0.4 mm 3 mps 750 mmHg 90%
    11:00 +13°C° 0.5 mm 3 mps 750 mmHg 89%
    12:00 +13°C° 0.5 mm 3 mps 750 mmHg 89%
    13:00 +13°C° 0.5 mm 3 mps 750 mmHg 88%
    14:00 +14°C° 0.5 mm 2 mps 750 mmHg 89%
    15:00 +13°C° 0.5 mm 2 mps 750 mmHg 90%
    16:00 +13°C° 0.5 mm 2 mps 750 mmHg 90%
    17:00 +13°C° 0.4 mm 2 mps 750 mmHg 91%
    18:00 +12°C° 0.4 mm 2 mps 750 mmHg 92%
    19:00 +12°C° 0.4 mm 2 mps 750 mmHg 92%
    20:00 +10°C° 0.1 mm 2 mps 751 mmHg 92%
    21:00 +10°C° 0.1 mm 2 mps 751 mmHg 91%
    22:00 +10°C° 0.1 mm 2 mps 751 mmHg 91%
    23:00 +9°C° 0 mm 2 mps 751 mmHg 90%

    23 October, Monday

    Time Temperature Precipitation Wind Pressure Humidity
    00:00 +9°C° 0 mm 2 mps 750 mmHg 90%
    01:00 +9°C° 0 mm 2 mps 750 mmHg 89%
    02:00 +9°C° 0 mm 2 mps 750 mmHg 90%
    03:00 +8°C° 0 mm 2 mps 750 mmHg 90%
    04:00 +8°C° 0 mm 2 mps 751 mmHg 90%
    05:00 +8°C° 0.1 mm 2 mps 751 mmHg 90%
    06:00 +8°C° 0.1 mm 2 mps 751 mmHg 90%
    07:00 +8°C° 0.1 mm 2 mps 751 mmHg 90%
    08:00 +9°C° 0 mm 2 mps 751 mmHg 87%
    09:00 +9°C° 0 mm 2 mps 751 mmHg 83%
    10:00 +10°C° 0 mm 2 mps 752 mmHg 79%
    11:00 +10°C° 0 mm 2 mps 752 mmHg 77%
    12:00 +10°C° 0 mm 2 mps 752 mmHg 74%
    13:00 +12°C° 0 mm 2 mps 752 mmHg 72%
    14:00 +10°C° 0 mm 2 mps 752 mmHg 74%
    15:00 +11°C° 0 mm 1 mps 752 mmHg 76%
    16:00 +11°C° 0 mm 1 mps 752 mmHg 78%
    17:00 +10°C° 0 mm 1 mps 753 mmHg 81%
    18:00 +10°C° 0 mm 1 mps 753 mmHg 83%
    19:00 +8°C° 0 mm 2 mps 753 mmHg 85%
    20:00 +8°C° 0 mm 2 mps 753 mmHg 87%
    21:00 +7°C° 0 mm 2 mps 753 mmHg 88%
    22:00 +7°C° 0 mm 2 mps 754 mmHg 90%
    23:00 +7°C° 0 mm 2 mps 754 mmHg 91%

    24 October, Tuesday

    Time Temperature Precipitation Wind Pressure Humidity
    00:00 +6°C° 0 mm 2 mps 754 mmHg 92%
    01:00 +6°C° 0 mm 2 mps 754 mmHg 93%
    02:00 +6°C° 0 mm 2 mps 754 mmHg 93%
    03:00 +8°C° 0 mm 1 mps 754 mmHg 94%
    04:00 +8°C° 0 mm 1 mps 754 mmHg 95%
    05:00 +8°C° 0 mm 1 mps 754 mmHg 95%
    06:00 +8°C° 0 mm 1 mps 754 mmHg 96%
    07:00 +9°C° 0 mm 1 mps 755 mmHg 96%
    08:00 +9°C° 0 mm 1 mps 755 mmHg 94%
    09:00 +10°C° 0 mm 1 mps 755 mmHg 92%
    10:00 +11°C° 0 mm 1 mps 756 mmHg 90%
    11:00 +11°C° 0 mm 1 mps 756 mmHg 87%
    12:00 +12°C° 0 mm 1 mps 756 mmHg 84%
    13:00 +13°C° 0 mm 1 mps 756 mmHg 82%
    14:00 +12°C° 0 mm 1 mps 757 mmHg 84%
    15:00 +12°C° 0 mm 1 mps 757 mmHg 86%
    16:00 +12°C° 0 mm 1 mps 757 mmHg 87%
    17:00 +11°C° 0 mm 1 mps 757 mmHg 88%
    18:00 +10°C° 0 mm 0 mps 758 mmHg 89%
    19:00 +9°C° 0 mm 0 mps 758 mmHg 90%
    20:00 +10°C° 0 mm 1 mps 759 mmHg 90%
    21:00 +9°C° 0 mm 1 mps 759 mmHg 91%
    22:00 +9°C° 0 mm 1 mps 759 mmHg 92%
    23:00 +9°C° 0 mm 1 mps 759 mmHg 92%
    Show more